STARLINK-36622, 67667

Orbit data source: Space-Track

STARLINK-36622, 67667 is a payload satellite owned by SpaceX/Seattle (US) in SSO that was launched on Mon, 02 Feb 2026 UTC via an FALCON 9 launch vehicle from the Air Force Western Test Range (AFWTR). Payload-class satellites include a variety of spacecraft equipped with specific instruments for various scientific and technological missions. These include communications satellites like Starlink; space stations such as the ISS; scientific satellites like the Hubble; Earth observation satellites from companies like Planet Labs, Umbra, and HawkEye 360; GPS; miniature CubeSats for education and research; and military/defense satellites.

Loading next visibility...
Identifier
67667, 2026-022V
Orbit
SSO
Country
Flag of USUS
Related business
Manufacturer
SpaceX/Seattle
Mission
Operational spacecraft
Bus & Motor
STARLINK V2MO, Unknown motor
Mass
575 kg wet, ~530 kg dry
Launch date (UTC)
2026-02-02 (2 months ago)
Launch vehicle
FALCON 9
Launch site
Air Force Western Test Range (AFWTR)
Object type
Payload
Rocket body
Debris
Shape & HBR
Unknown shape, 17.7 m
Radar Cross Section
RCS unknown

Expand to show TLE details & history
Last TLE update: 15 hours ago

TLE from 15 hours ago
0 STARLINK-36622
1 67667U 26022V   26095.00108124  .00032218  00000-0  99555-3 0  9994
2 67667  97.2853 128.9462 0002001  57.9264 302.2172 15.33459643  9601
Epoch: 2026-04-05T00:01Z
TLE epoch observation values (Epoch: 2026-04-05T00:01:33.419Z)
Latitude
-0.00009°
Longitude
-64.75581°
Altitude
467.882 km
Speed
7.633 km/s
True Right ascension
08h 35m 47s
True Declination
0° 00' 00"
Sunlit
Object was in full shadow at epoch
Visualization orbit readout
Latitude
Unknown
Longitude
Unknown
Altitude
Unknown
Speed
Unknown
Apparent Right ascension
Unknown
Apparent Declination
Unknown
Sunlit
N/A
Visualization observer readout
Local Sidereal Time
20:56:43
Azimuth
Unknown
Elevation
Unknown
Doppler factor
Unknown
Orbital elements
Apogee altitude
463.811 km
Perigee altitude
461.074 km
Semi-major axis
6,840.579 km
Eccentricity
0.0002
Inclination
97.2853°
RAAN
128.9462°
Arg. of periapsis
57.9264°
True anomaly
302.1978°
Mean anomaly
302.2172°
Eccentric anomaly
302.2075°
Mean motion
3.83622 °/min
Orbital period
93.84 mins
BSTAR
0.00099555
Loading maneuver chart data...
Computing Atmospheric mass density...
Loading historical data...
Loading historical data...
Loading historical data...
Loading historical data...
Loading historical data...
Loading historical data...
Loading historical data...

Documentation

Showing up to 5 results
|